SAS237 EGLL-ENGM

Flight info

Callsign SAS237
Flight time 1h 42m
Altitude 39000
Route BPK Q295 MATCH P144 SAMHO DCT LARGA DCT INBOB M604 DANKO DCT PIPEX DCT ULMUG DCT RIPAM
Aircraft A20N/M-SDE2E3FGHIRWXY/LB1

Departure

Time 2026-05-07 18:06
Airport London Heathrow Airport (EGLL)

Arrival

Time 2026-05-07 19:48
Airport Oslo-Gardermoen International Airport (ENGM)
Time Latitude Longitude Altitude Speed Heading
2026-05-07 17:30 51.46826 -0.45181 89 ft 0 kts 359°
2026-05-07 17:53 51.46801 -0.45181 87 ft 4 kts 359°
2026-05-07 17:54 51.46779 -0.45181 87 ft 3 kts 359°
2026-05-07 17:54 51.46756 -0.45172 86 ft 4 kts 303°
2026-05-07 17:54 51.46751 -0.45135 86 ft 4 kts 270°
2026-05-07 17:54 51.46751 -0.45118 86 ft 1 kts 270°
2026-05-07 17:58 51.46751 -0.45150 91 ft 9 kts 270°
2026-05-07 17:58 51.46750 -0.45314 86 ft 18 kts 269°
2026-05-07 17:58 51.46667 -0.45421 87 ft 15 kts 238°
2026-05-07 17:58 51.46661 -0.45598 87 ft 17 kts 270°
2026-05-07 17:59 51.46661 -0.45804 86 ft 20 kts 270°
2026-05-07 17:59 51.46659 -0.46035 87 ft 22 kts 269°
2026-05-07 17:59 51.46659 -0.46286 90 ft 23 kts 270°
2026-05-07 17:59 51.46658 -0.46556 90 ft 24 kts 270°
2026-05-07 18:00 51.46658 -0.46816 88 ft 24 kts 270°
2026-05-07 18:00 51.46656 -0.47088 89 ft 25 kts 269°
2026-05-07 18:00 51.46655 -0.47363 86 ft 25 kts 270°
2026-05-07 18:00 51.46654 -0.47653 86 ft 26 kts 270°
2026-05-07 18:01 51.46654 -0.47939 86 ft 26 kts 270°
2026-05-07 18:01 51.46651 -0.48234 86 ft 27 kts 270°
2026-05-07 18:01 51.46646 -0.48444 90 ft 5 kts 242°
2026-05-07 18:01 51.46617 -0.48466 86 ft 6 kts 185°
2026-05-07 18:02 51.46592 -0.48465 86 ft 0 kts 178°
2026-05-07 18:03 51.46586 -0.48465 87 ft 4 kts 178°
2026-05-07 18:03 51.46514 -0.48462 90 ft 14 kts 178°
2026-05-07 18:03 51.46480 -0.48350 87 ft 10 kts 88°
2026-05-07 18:04 51.46480 -0.48341 87 ft 0 kts 88°
2026-05-07 18:05 51.46481 -0.48319 87 ft 13 kts 87°
2026-05-07 18:05 51.46481 -0.47780 86 ft 82 kts 90°
2026-05-07 18:06 51.46485 -0.46558 90 ft 134 kts 90°
2026-05-07 18:06 51.46493 -0.44845 225 ft 164 kts 91°
2026-05-07 18:06 51.46484 -0.43033 826 ft 164 kts 94°
2026-05-07 18:06 51.46552 -0.41172 1396 ft 172 kts 74°
2026-05-07 18:07 51.47099 -0.39444 1954 ft 182 kts 57°
2026-05-07 18:07 51.47920 -0.37690 2200 ft 210 kts 52°
2026-05-07 18:07 51.48907 -0.35756 2569 ft 236 kts 51°
2026-05-07 18:07 51.50002 -0.33659 3228 ft 254 kts 50°
2026-05-07 18:08 51.51136 -0.31430 4152 ft 259 kts 53°
2026-05-07 18:08 51.52148 -0.28994 4813 ft 267 kts 63°
2026-05-07 18:08 51.52922 -0.26304 4939 ft 264 kts 67°
2026-05-07 18:08 51.53607 -0.23582 5051 ft 263 kts 69°
2026-05-07 18:09 51.54244 -0.20817 5165 ft 265 kts 70°
2026-05-07 18:09 51.55193 -0.18312 5278 ft 266 kts 44°
2026-05-07 18:09 51.56738 -0.16804 5411 ft 267 kts 17°
2026-05-07 18:09 51.58582 -0.16442 5543 ft 270 kts
2026-05-07 18:10 51.60478 -0.16374 6079 ft 274 kts
2026-05-07 18:10 51.62369 -0.16072 7138 ft 274 kts
2026-05-07 18:10 51.64277 -0.15505 7969 ft 282 kts 12°
2026-05-07 18:10 51.66195 -0.14739 8918 ft 286 kts 14°
2026-05-07 18:11 51.68137 -0.13870 9822 ft 293 kts 15°
2026-05-07 18:11 51.69444 -0.13262 10357 ft 298 kts 15°
2026-05-07 18:11 51.72218 -0.11813 10845 ft 330 kts 26°
2026-05-07 18:11 51.74089 -0.09523 11240 ft 347 kts 50°
2026-05-07 18:12 51.75301 -0.06165 12010 ft 350 kts 72°
2026-05-07 18:12 51.75794 -0.02312 12840 ft 353 kts 83°
2026-05-07 18:12 51.76103 0.01634 13690 ft 356 kts 85°
2026-05-07 18:12 51.76388 0.05619 14440 ft 361 kts 85°
2026-05-07 18:13 51.76686 0.09663 14593 ft 364 kts 85°
2026-05-07 18:13 51.77002 0.13728 14765 ft 367 kts 84°
2026-05-07 18:13 51.77332 0.17831 15486 ft 369 kts 84°
2026-05-07 18:13 51.77697 0.21966 16217 ft 374 kts 78°
2026-05-07 18:14 51.78653 0.25890 16887 ft 380 kts 59°
2026-05-07 18:14 51.80296 0.29253 17582 ft 384 kts 46°
2026-05-07 18:14 51.82233 0.32274 18275 ft 389 kts 42°
2026-05-07 18:14 51.84245 0.35215 18912 ft 392 kts 41°
2026-05-07 18:15 51.86269 0.38207 19502 ft 396 kts 42°
2026-05-07 18:15 51.88287 0.41270 20141 ft 399 kts 43°
2026-05-07 18:15 51.90302 0.44390 20736 ft 403 kts 43°
2026-05-07 18:15 51.92323 0.47556 21326 ft 406 kts 43°
2026-05-07 18:16 51.94361 0.50767 21928 ft 409 kts 43°
2026-05-07 18:16 51.96409 0.54001 22513 ft 413 kts 43°
2026-05-07 18:16 51.98477 0.57272 23070 ft 417 kts 43°
2026-05-07 18:16 52.00564 0.60574 23633 ft 421 kts 43°
2026-05-07 18:17 52.02736 0.63793 24119 ft 423 kts 37°
2026-05-07 18:17 52.05127 0.66592 24616 ft 425 kts 33°
2026-05-07 18:17 52.07565 0.69357 25090 ft 428 kts 34°
2026-05-07 18:17 52.10009 0.72151 25555 ft 431 kts 34°
2026-05-07 18:18 52.12468 0.74969 26014 ft 434 kts 34°
2026-05-07 18:18 52.14948 0.77814 26461 ft 437 kts 34°
2026-05-07 18:18 52.17438 0.80674 26903 ft 440 kts 34°
2026-05-07 18:18 52.19950 0.83561 27322 ft 443 kts 34°
2026-05-07 18:19 52.22473 0.86465 27737 ft 446 kts 34°
2026-05-07 18:19 52.25012 0.89391 28135 ft 448 kts 34°
2026-05-07 18:19 52.27564 0.92336 28526 ft 451 kts 34°
2026-05-07 18:19 52.30130 0.95298 28990 ft 451 kts 35°
2026-05-07 18:20 52.32701 0.98270 29358 ft 454 kts 35°
2026-05-07 18:20 52.35283 1.01261 29738 ft 456 kts 35°
2026-05-07 18:20 52.37876 1.04273 30099 ft 458 kts 35°
2026-05-07 18:20 52.40484 1.07306 30404 ft 461 kts 35°
2026-05-07 18:21 52.43103 1.10355 30719 ft 463 kts 35°
2026-05-07 18:21 52.45735 1.13423 31017 ft 465 kts 35°
2026-05-07 18:21 52.48376 1.16508 31363 ft 467 kts 35°
2026-05-07 18:21 52.51020 1.19601 31746 ft 466 kts 35°
2026-05-07 18:22 52.53658 1.22687 32218 ft 464 kts 36°
2026-05-07 18:22 52.55399 1.24728 32522 ft 463 kts 36°
2026-05-07 18:22 52.58903 1.28844 33024 ft 463 kts 36°
2026-05-07 18:22 52.61523 1.31928 33385 ft 463 kts 36°
2026-05-07 18:23 52.64137 1.35009 33743 ft 462 kts 36°
2026-05-07 18:23 52.66751 1.38095 34089 ft 462 kts 36°
2026-05-07 18:23 52.69326 1.41139 34371 ft 462 kts 36°
2026-05-07 18:23 52.71937 1.44230 34628 ft 462 kts 36°
2026-05-07 18:24 52.74549 1.47327 34860 ft 462 kts 36°
2026-05-07 18:24 52.77166 1.50432 35143 ft 462 kts 36°
2026-05-07 18:24 52.79766 1.53522 35455 ft 460 kts 36°
2026-05-07 18:24 52.82365 1.56619 35683 ft 461 kts 36°
2026-05-07 18:25 52.84965 1.59721 35888 ft 461 kts 36°
2026-05-07 18:25 52.87568 1.62832 36122 ft 462 kts 36°
2026-05-07 18:25 52.90173 1.65948 36337 ft 462 kts 36°
2026-05-07 18:25 52.92779 1.69072 36545 ft 462 kts 36°
2026-05-07 18:26 52.95386 1.72200 36755 ft 463 kts 36°
2026-05-07 18:26 52.97993 1.75334 36949 ft 463 kts 36°
2026-05-07 18:26 53.00603 1.78474 37167 ft 463 kts 36°
2026-05-07 18:26 53.03205 1.81610 37393 ft 463 kts 36°
2026-05-07 18:27 53.05811 1.84757 37569 ft 463 kts 36°
2026-05-07 18:27 53.08420 1.87912 37735 ft 464 kts 36°
2026-05-07 18:27 53.11030 1.91074 37915 ft 464 kts 36°
2026-05-07 18:27 53.12793 1.93212 38022 ft 464 kts 36°
2026-05-07 18:28 53.16251 1.97413 38244 ft 465 kts 36°
2026-05-07 18:28 53.18864 2.00594 38400 ft 465 kts 36°
2026-05-07 18:28 53.21482 2.03784 38556 ft 466 kts 36°
2026-05-07 18:28 53.24096 2.06974 38718 ft 465 kts 36°
2026-05-07 18:29 53.26711 2.10160 38845 ft 466 kts 35°
2026-05-07 18:29 53.29375 2.13238 38963 ft 466 kts 33°
2026-05-07 18:29 53.32066 2.16256 39063 ft 466 kts 33°
2026-05-07 18:30 53.37448 2.22300 39098 ft 465 kts 33°
2026-05-07 18:30 53.42799 2.28385 39103 ft 465 kts 34°
2026-05-07 18:31 53.48140 2.34499 39102 ft 465 kts 34°
2026-05-07 18:31 53.53360 2.40905 39102 ft 465 kts 37°
2026-05-07 18:32 53.58506 2.47492 39105 ft 465 kts 37°
2026-05-07 18:32 53.63671 2.54048 39111 ft 465 kts 37°
2026-05-07 18:33 53.68843 2.60603 39099 ft 465 kts 37°
2026-05-07 18:33 53.74007 2.67164 39108 ft 465 kts 37°
2026-05-07 18:34 53.79176 2.73752 39118 ft 465 kts 37°
2026-05-07 18:34 53.84334 2.80350 39114 ft 465 kts 37°
2026-05-07 18:35 53.89489 2.86963 39110 ft 465 kts 37°
2026-05-07 18:35 53.94644 2.93597 39112 ft 465 kts 37°
2026-05-07 18:36 53.99789 3.00240 39117 ft 465 kts 37°
2026-05-07 18:36 54.04935 3.06906 39118 ft 465 kts 37°
2026-05-07 18:37 54.09238 3.12495 39120 ft 464 kts 37°
2026-05-07 18:37 54.14371 3.19182 39120 ft 464 kts 37°
2026-05-07 18:38 54.19495 3.25880 39120 ft 464 kts 37°
2026-05-07 18:38 54.24615 3.32592 39123 ft 464 kts 38°
2026-05-07 18:39 54.29730 3.39321 39115 ft 463 kts 38°
2026-05-07 18:39 54.34837 3.46061 39122 ft 463 kts 38°
2026-05-07 18:40 54.39938 3.52814 39117 ft 463 kts 38°
2026-05-07 18:40 54.44982 3.59514 39126 ft 463 kts 38°
2026-05-07 18:41 54.50073 3.66297 39123 ft 463 kts 38°
2026-05-07 18:41 54.55147 3.73080 39125 ft 463 kts 38°
2026-05-07 18:42 54.60214 3.79875 39121 ft 462 kts 38°
2026-05-07 18:42 54.65283 3.86695 39123 ft 462 kts 38°
2026-05-07 18:43 54.70337 3.93518 39132 ft 462 kts 38°
2026-05-07 18:43 54.75384 4.00352 39133 ft 462 kts 38°
2026-05-07 18:44 54.80424 4.07201 39130 ft 461 kts 38°
2026-05-07 18:44 54.85448 4.14043 39129 ft 461 kts 38°
2026-05-07 18:45 54.90761 4.20225 39128 ft 461 kts 32°
2026-05-07 18:45 54.96156 4.26245 39140 ft 461 kts 32°
2026-05-07 18:46 55.01544 4.32290 39138 ft 460 kts 32°
2026-05-07 18:46 55.06897 4.38317 39129 ft 460 kts 33°
2026-05-07 18:47 55.12191 4.44296 39138 ft 460 kts 33°
2026-05-07 18:47 55.17546 4.50365 39137 ft 459 kts 33°
2026-05-07 18:48 55.22890 4.56442 39135 ft 456 kts 32°
2026-05-07 18:48 55.28219 4.62519 39136 ft 457 kts 32°
2026-05-07 18:49 55.33551 4.68619 39133 ft 457 kts 33°
2026-05-07 18:49 55.38872 4.74728 39131 ft 457 kts 33°
2026-05-07 18:50 55.44197 4.80861 39140 ft 457 kts 32°
2026-05-07 18:50 55.49482 4.86969 39140 ft 457 kts 33°
2026-05-07 18:51 55.54801 4.93134 39138 ft 457 kts 33°
2026-05-07 18:51 55.60120 4.99320 39137 ft 457 kts 33°
2026-05-07 18:52 55.65430 5.05517 39141 ft 457 kts 33°
2026-05-07 18:52 55.70738 5.11738 39136 ft 458 kts 33°
2026-05-07 18:53 55.76047 5.17976 39137 ft 458 kts 33°
2026-05-07 18:53 55.81352 5.24230 39138 ft 458 kts 33°
2026-05-07 18:54 55.86660 5.30509 39136 ft 458 kts 33°
2026-05-07 18:54 55.91960 5.36799 39138 ft 458 kts 33°
2026-05-07 18:55 55.97258 5.43110 39140 ft 458 kts 33°
2026-05-07 18:55 56.02563 5.49447 39141 ft 458 kts 33°
2026-05-07 18:56 56.07852 5.55784 39142 ft 458 kts 33°
2026-05-07 18:56 56.13142 5.62144 39141 ft 458 kts 33°
2026-05-07 18:57 56.18432 5.68527 39138 ft 458 kts 33°
2026-05-07 18:57 56.23713 5.74921 39134 ft 457 kts 33°
2026-05-07 18:58 56.28986 5.81327 39138 ft 457 kts 33°
2026-05-07 18:58 56.34256 5.87751 39138 ft 457 kts 33°
2026-05-07 18:59 56.39524 5.94193 39135 ft 457 kts 33°
2026-05-07 18:59 56.44787 6.00653 39132 ft 458 kts 33°
2026-05-07 19:00 56.50057 6.07143 39134 ft 458 kts 33°
2026-05-07 19:00 56.55321 6.13647 39137 ft 458 kts 33°
2026-05-07 19:01 56.60590 6.20179 39135 ft 459 kts 33°
2026-05-07 19:01 56.65857 6.26732 39137 ft 459 kts 33°
2026-05-07 19:02 56.71091 6.33267 39138 ft 460 kts 33°
2026-05-07 19:02 56.76409 6.39876 39140 ft 460 kts 31°
2026-05-07 19:03 56.81844 6.45882 39142 ft 459 kts 29°
2026-05-07 19:03 56.87366 6.51906 39143 ft 459 kts 30°
2026-05-07 19:04 56.92793 6.57933 39142 ft 459 kts 30°
2026-05-07 19:04 56.98249 6.64049 39139 ft 460 kts 30°
2026-05-07 19:05 57.03703 6.70190 39136 ft 460 kts 30°
2026-05-07 19:05 57.09159 6.76355 39132 ft 460 kts 30°
2026-05-07 19:06 57.14607 6.82532 39134 ft 460 kts 30°
2026-05-07 19:06 57.22780 6.91840 39129 ft 461 kts 30°
2026-05-07 19:07 57.28230 6.98073 39132 ft 461 kts 30°
2026-05-07 19:07 57.33676 7.04323 39129 ft 461 kts 30°
2026-05-07 19:08 57.39121 7.10596 39130 ft 461 kts 30°
2026-05-07 19:08 57.44565 7.16889 39133 ft 461 kts 30°
2026-05-07 19:09 57.50011 7.23207 39133 ft 461 kts 30°
2026-05-07 19:09 57.55458 7.29548 39134 ft 462 kts 30°
2026-05-07 19:10 57.60902 7.35909 39139 ft 462 kts 30°
2026-05-07 19:10 57.66345 7.42291 39137 ft 462 kts 30°
2026-05-07 19:11 57.71785 7.48693 39141 ft 462 kts 30°
2026-05-07 19:11 57.77229 7.55123 39134 ft 463 kts 30°
2026-05-07 19:12 57.82679 7.61584 39138 ft 463 kts 30°
2026-05-07 19:12 57.88119 7.68054 39140 ft 463 kts 30°
2026-05-07 19:13 57.93566 7.74557 39136 ft 463 kts 30°
2026-05-07 19:13 57.99008 7.81080 39131 ft 464 kts 30°
2026-05-07 19:14 58.04421 7.87591 39131 ft 464 kts 30°
2026-05-07 19:14 58.09866 7.94164 39131 ft 465 kts 30°
2026-05-07 19:15 58.15315 8.00765 39130 ft 465 kts 31°
2026-05-07 19:15 58.20761 8.07387 39136 ft 465 kts 31°
2026-05-07 19:16 58.26207 8.14036 39130 ft 466 kts 30°
2026-05-07 19:16 58.31652 8.20705 39135 ft 466 kts 30°
2026-05-07 19:17 58.37100 8.27405 39147 ft 466 kts 31°
2026-05-07 19:17 58.42551 8.34133 39149 ft 467 kts 31°
2026-05-07 19:18 58.47995 8.40877 39147 ft 467 kts 31°
2026-05-07 19:18 58.53412 8.47723 39145 ft 467 kts 31°
2026-05-07 19:19 58.57970 8.53347 39014 ft 462 kts 30°
2026-05-07 19:19 58.60666 8.56678 38585 ft 460 kts 30°
2026-05-07 19:19 58.63344 8.60023 37942 ft 459 kts 31°
2026-05-07 19:20 58.65977 8.63342 37254 ft 459 kts 31°
2026-05-07 19:20 58.68639 8.66718 36570 ft 458 kts 31°
2026-05-07 19:20 58.71296 8.70102 35885 ft 458 kts 30°
2026-05-07 19:20 58.73947 8.73488 35249 ft 457 kts 30°
2026-05-07 19:21 58.76604 8.76890 34490 ft 460 kts 29°
2026-05-07 19:21 58.79264 8.80302 33777 ft 459 kts 29°
2026-05-07 19:21 58.81926 8.83719 32973 ft 460 kts 29°
2026-05-07 19:21 58.84597 8.87151 32112 ft 462 kts 30°
2026-05-07 19:22 58.87279 8.90604 31323 ft 463 kts 30°
2026-05-07 19:22 58.89955 8.94058 30501 ft 464 kts 30°
2026-05-07 19:22 58.92630 8.97521 29775 ft 461 kts 30°
2026-05-07 19:22 58.95285 9.00966 29159 ft 456 kts 30°
2026-05-07 19:23 58.97902 9.04365 28549 ft 450 kts 30°
2026-05-07 19:23 59.00495 9.07738 27964 ft 446 kts 30°
2026-05-07 19:23 59.03061 9.11085 27281 ft 443 kts 29°
2026-05-07 19:23 59.05603 9.14400 26704 ft 438 kts 29°
2026-05-07 19:24 59.08118 9.17686 26136 ft 434 kts 29°
2026-05-07 19:24 59.10610 9.20949 25567 ft 430 kts 29°
2026-05-07 19:24 59.13075 9.24182 25002 ft 426 kts 30°
2026-05-07 19:24 59.15517 9.27392 24462 ft 422 kts 30°
2026-05-07 19:25 59.17938 9.30580 23918 ft 418 kts 30°
2026-05-07 19:25 59.20336 9.33741 23313 ft 414 kts 30°
2026-05-07 19:25 59.22712 9.36877 22680 ft 411 kts 30°
2026-05-07 19:25 59.25073 9.39998 22040 ft 408 kts 30°
2026-05-07 19:26 59.27412 9.43096 21431 ft 405 kts 30°
2026-05-07 19:26 59.29736 9.46180 20832 ft 402 kts 30°
2026-05-07 19:26 59.32040 9.49243 20260 ft 399 kts 30°
2026-05-07 19:26 59.34325 9.52293 19679 ft 396 kts 30°
2026-05-07 19:27 59.36597 9.55322 19096 ft 394 kts 31°
2026-05-07 19:27 59.38854 9.58332 18562 ft 391 kts 31°
2026-05-07 19:27 59.41070 9.61295 17992 ft 388 kts 31°
2026-05-07 19:27 59.43290 9.64271 17425 ft 384 kts 31°
2026-05-07 19:28 59.45485 9.67219 16868 ft 380 kts 31°
2026-05-07 19:28 59.47661 9.70147 16301 ft 377 kts 31°
2026-05-07 19:28 59.49812 9.73046 15784 ft 373 kts 31°
2026-05-07 19:28 59.51945 9.75925 15248 ft 370 kts 32°
2026-05-07 19:29 59.54058 9.78779 14725 ft 367 kts 32°
2026-05-07 19:29 59.56148 9.81604 14261 ft 362 kts 32°
2026-05-07 19:29 59.58215 9.84406 13746 ft 359 kts 32°
2026-05-07 19:29 59.60275 9.87202 13192 ft 356 kts 32°
2026-05-07 19:30 59.62305 9.89963 12645 ft 353 kts 32°
2026-05-07 19:30 59.64302 9.92684 12399 ft 344 kts 32°
2026-05-07 19:30 59.66307 9.95423 12306 ft 354 kts 32°
2026-05-07 19:30 59.68327 9.98182 12191 ft 351 kts 32°
2026-05-07 19:31 59.70333 10.00924 12097 ft 350 kts 33°
2026-05-07 19:31 59.72336 10.03667 12116 ft 351 kts 33°
2026-05-07 19:31 59.74345 10.06424 12098 ft 351 kts 33°
2026-05-07 19:31 59.76353 10.09186 12108 ft 351 kts 33°
2026-05-07 19:32 59.78355 10.11942 12107 ft 351 kts 33°
2026-05-07 19:32 59.80360 10.14707 12109 ft 350 kts 33°
2026-05-07 19:32 59.82360 10.17467 12090 ft 349 kts 33°
2026-05-07 19:32 59.84349 10.20217 11837 ft 348 kts 33°
2026-05-07 19:33 59.86329 10.22958 11416 ft 345 kts 33°
2026-05-07 19:33 59.88293 10.25679 10925 ft 343 kts 33°
2026-05-07 19:33 59.90242 10.28385 10474 ft 339 kts 33°
2026-05-07 19:33 59.92138 10.31024 10327 ft 325 kts 33°
2026-05-07 19:34 59.93952 10.33553 10200 ft 312 kts 33°
2026-05-07 19:34 59.95691 10.35982 10084 ft 299 kts 33°
2026-05-07 19:34 59.97374 10.38334 9806 ft 292 kts 34°
2026-05-07 19:34 59.99029 10.40648 9403 ft 290 kts 34°
2026-05-07 19:35 60.00673 10.42948 9005 ft 287 kts 34°
2026-05-07 19:35 60.02305 10.45235 8606 ft 285 kts 34°
2026-05-07 19:35 60.03922 10.47502 8241 ft 282 kts 34°
2026-05-07 19:35 60.05522 10.49753 7875 ft 280 kts 34°
2026-05-07 19:36 60.07087 10.51954 7513 ft 278 kts 34°
2026-05-07 19:36 60.08661 10.54170 7138 ft 275 kts 34°
2026-05-07 19:36 60.10223 10.56371 6760 ft 273 kts 34°
2026-05-07 19:36 60.11776 10.58563 6377 ft 272 kts 34°
2026-05-07 19:37 60.13316 10.60739 5980 ft 270 kts 34°
2026-05-07 19:37 60.14851 10.62908 5575 ft 269 kts 35°
2026-05-07 19:37 60.16381 10.65076 5219 ft 267 kts 35°
2026-05-07 19:37 60.17878 10.67199 5122 ft 267 kts 35°
2026-05-07 19:38 60.19407 10.69371 5026 ft 269 kts 35°
2026-05-07 19:38 60.20928 10.71534 4997 ft 267 kts 35°
2026-05-07 19:38 60.22447 10.73697 4998 ft 268 kts 36°
2026-05-07 19:38 60.23965 10.75859 4994 ft 267 kts 36°
2026-05-07 19:39 60.25482 10.78023 4999 ft 268 kts 36°
2026-05-07 19:39 60.26999 10.80189 4999 ft 267 kts 36°
2026-05-07 19:39 60.28514 10.82357 5000 ft 267 kts 36°
2026-05-07 19:39 60.30027 10.84523 4999 ft 267 kts 36°
2026-05-07 19:40 60.31542 10.86693 5000 ft 268 kts 36°
2026-05-07 19:40 60.33068 10.88881 4997 ft 269 kts 36°
2026-05-07 19:40 60.34587 10.91058 4858 ft 267 kts 36°
2026-05-07 19:40 60.36096 10.93219 4532 ft 266 kts 36°
2026-05-07 19:41 60.37602 10.95375 4199 ft 263 kts 36°
2026-05-07 19:41 60.39087 10.97498 4105 ft 266 kts 36°
2026-05-07 19:41 60.40520 10.99835 4003 ft 263 kts 51°
2026-05-07 19:41 60.41302 11.03033 4000 ft 248 kts 81°
2026-05-07 19:42 60.41224 11.06353 4008 ft 229 kts 104°
2026-05-07 19:42 60.40856 11.09368 3997 ft 212 kts 105°
2026-05-07 19:42 60.40515 11.12146 4020 ft 194 kts 105°
2026-05-07 19:42 60.40204 11.14680 4005 ft 186 kts 105°
2026-05-07 19:43 60.39889 11.17241 4001 ft 187 kts 105°
2026-05-07 19:43 60.39508 11.19738 3998 ft 186 kts 121°
2026-05-07 19:43 60.38549 11.21403 4001 ft 184 kts 159°
2026-05-07 19:43 60.37352 11.22117 3822 ft 181 kts 165°
2026-05-07 19:44 60.36115 11.22089 3700 ft 184 kts 198°
2026-05-07 19:44 60.34913 11.21120 3614 ft 185 kts 201°
2026-05-07 19:44 60.33703 11.20208 3460 ft 186 kts 198°
2026-05-07 19:44 60.32505 11.19444 3238 ft 173 kts 195°
2026-05-07 19:45 60.31409 11.18802 3024 ft 157 kts 195°
2026-05-07 19:45 60.30403 11.18214 2823 ft 145 kts 195°
2026-05-07 19:45 60.29413 11.17639 2628 ft 148 kts 195°
2026-05-07 19:45 60.28429 11.17066 2437 ft 147 kts 195°
2026-05-07 19:46 60.27453 11.16499 2230 ft 144 kts 195°
2026-05-07 19:46 60.26494 11.15942 2034 ft 144 kts 195°
2026-05-07 19:46 60.25536 11.15385 1839 ft 143 kts 195°
2026-05-07 19:46 60.24583 11.14832 1643 ft 143 kts 195°
2026-05-07 19:47 60.23621 11.14275 1425 ft 145 kts 195°
2026-05-07 19:47 60.22650 11.13727 1208 ft 145 kts 195°
2026-05-07 19:47 60.21679 11.13165 1049 ft 145 kts 195°
2026-05-07 19:47 60.20708 11.12596 882 ft 145 kts 195°
2026-05-07 19:48 60.19738 11.12035 704 ft 144 kts 194°
2026-05-07 19:48 60.18896 11.11554 682 ft 90 kts 197°
2026-05-07 19:48 60.18536 11.11314 679 ft 38 kts 211°
2026-05-07 19:48 60.18431 11.11083 682 ft 3 kts 263°
2026-05-07 19:49 60.18435 11.11028 681 ft 12 kts 282°
2026-05-07 19:49 60.18470 11.10824 680 ft 18 kts 294°
2026-05-07 19:49 60.18574 11.10783 681 ft 18 kts 26°
2026-05-07 19:49 60.18690 11.10867 679 ft 18 kts 12°
2026-05-07 19:50 60.18814 11.10931 683 ft 19 kts 17°
2026-05-07 19:50 60.18951 11.11010 682 ft 21 kts 12°
2026-05-07 19:50 60.19092 11.11082 683 ft 19 kts 15°
2026-05-07 19:50 60.19175 11.10986 680 ft 15 kts 302°
2026-05-07 19:51 60.19211 11.10787 680 ft 16 kts 284°
2026-05-07 19:51 60.19272 11.10673 681 ft 5 kts 341°
2026-05-07 19:51 60.19286 11.10667 684 ft 2 kts 349°
2026-05-07 19:51 60.19295 11.10662 681 ft 0 kts 345°